Regional Weather Roundup
Issued by NWS Portland, ME

Home | Current Version | Previous Version | Text Only | Print | Product List | Glossary On
Versions: 1 2 3 4 5 6 7 8 9 10 11 12 13 14 15 16 17 18 19 20 21 22 23 24 25 26 27 28 29 30 31 32 33 34 35 36 37 38 39 40 41 42 43 44 45 46 47 48 49 50
000
ASUS41 KGYX 290810
RWRGYX
WEATHER ROUNDUP FOR MAINE AND NEW HAMPSHIRE
NATIONAL WEATHER SERVICE GRAY ME
400 AM EDT MON AUG 29 2016

MEZ002-005-006-010-012-015-018-020-021-024-026-027-029-290900-
MAINE

CITY           SKY/WX    TMP DP  RH WIND       PRES   REMARKS
PORTLAND       CLOUDY    69  60  73 SW6       30.03F
SANFORD        CLOUDY    67  60  78 S6        30.04F
BAR HARBOR     CLOUDY    65  64  97 S14       30.03F
WISCASSET      CLOUDY    68  63  84 VRB7      30.04S
FRYEBURG       CLOUDY    60  60 100 CALM      30.03F
LEWISTONAUBURN MOCLDY    64  63  96 CALM      30.02F
AUGUSTA        MOCLDY    65  63  93 S7        30.02F
WATERVILLE     CLOUDY    64  63  96 CALM      30.00S
BANGOR         CLOUDY    65  63  93 S8        30.01F
GREENVILLE       N/A     60  58  92 CALM      29.98F
MILLINOCKET    LGT RAIN  64  62  93 VRB3      29.97F
HOULTON        CLOUDY    64  61  90 S8G20     29.94F
PRESQUE ISLE   CLOUDY    62  61  96 S7        29.92S
FRENCHVILLE    CLOUDY    62  60  93 SE7       29.88F FOG
CARIBOU        CLOUDY    63  60  90 NW10      29.92R
$$

NHZ002-005-008-009-011-012-014-290900-
NEW HAMPSHIRE

CITY           SKY/WX    TMP DP  RH WIND       PRES   REMARKS
PORTSMOUTH     MOCLDY    70  58  65 SW8       30.04F
ROCHESTER      CLOUDY    68  59  73 VRB5      30.04F
NASHUA         CLOUDY    72  62  71 CALM      30.08S
MANCHESTER     CLOUDY    71  59  65 S7        30.04F
CONCORD        CLOUDY    69  61  75 SE5       30.05F
LACONIA        CLOUDY    69  62  78 SW7       30.05S
PLYMOUTH       FAIR      63  62  96 CALM      30.04F FOG
BERLIN         CLOUDY    62  59  90 CALM      30.05S FOG
WHITEFIELD     CLOUDY    67  63  87 CALM      30.05S
JAFFREY        CLOUDY    67  61  81 SW7       30.12S
KEENE          MOCLDY    66  63  90 CALM      30.09S
LEBANON        CLOUDY    71  63  75 SW3       30.05S
MT WASHINGTON  FOG       55  55 100 W49G62      N/A  VSB 0
$$

VTZ005-007-008-290900-
VERMONT

CITY           SKY/WX    TMP DP  RH WIND       PRES   REMARKS
ST JOHNSBURY     N/A     67  63  87 MISG      30.03R
MONTPELIER     PTCLDY    72  64  76 NW5       30.09S
BURLINGTON     PTCLDY    75  64  68 NW7       30.05R
$$

MAZ007-012-024-CTZ003-RIZ002-NYZ038-NYZ072-290900-
SOUTHERN NEW ENGLAND AND NY

CITY           SKY/WX    TMP DP  RH WIND       PRES   REMARKS
BOSTON         CLEAR     71  60  68 SW15      30.08F
WORCESTER      PTCLDY    66  60  81 SW13      30.11F
NANTUCKET      MOCLDY    69  67  93 SW9       30.12F
PROVIDENCE     CLOUDY    68  63  84 SW6       30.12F
HARTFORD       MOCLDY    70  64  81 S7        30.10F
ALBANY         MOCLDY    73  64  73 SE3       30.08F
NEW YORK CITY  CLOUDY    77  62  59 SW9       30.11F
$$

ANZ081-ANZ082-ANZ150-NHZ014-MEZ023>029-290900-
COASTAL MARINE OBSERVATIONS

STATION/POSITION TIME  TEMP    WIND        PRES    WAVE
                       AIR SEA DIR/SP/G            HT/PER
                 (UTC) (F)     (DEG/KT/KT) (MB)    (FT/S)
MOUNT DESERT ROC 0800   63     180/ 19/ 20 1017.3F
MATINICUS ROCK   0800   64     210/ 21/ 22 1016.9F
ISLE OF SHOALS   0800   68     210/ 17/ 18 1017.2F
JEFFREYS LEDGE   0708      66                N/A     3/ 4
CASHES LEDGE BUO 0750   70 68  200/ 21/ 27 1017.7F   5/ 5
GEORGES BANK BUO 0750   67 67              1019.6F   3/13
$$

.............KEY..............
   WCI - WIND CHILL
   TC  - TEMPERATURE IN CELSIUS
   VSB - VISIBILITY IN MILES
   HX  - HEAT INDEX
   FAIR- INDICATES FEW OR NO CLOUDS BELOW 12,000 FT, WITH NO
         SIGNIFICANT WEATHER AND/OR OBSTRUCTIONS TO VISIBILITY.





USA.gov is the U.S. government's official web portal to all federal, state and local government web resources and services.